TimeEDT,TemperatureF,Dew PointF,Humidity,Sea Level PressureIn,VisibilityMPH,Wind Direction,Wind SpeedMPH,Gust SpeedMPH,PrecipitationIn,Events,Conditions,WindDirDegrees,DateUTC
12:04 AM,55.4,55.4,100,29.64,1.5,ENE,6.9,-,0.00,,Overcast,60,2012-10-20 04:04:00
12:08 AM,55.4,55.4,100,29.63,0.8,ENE,9.2,-,0.00,,Overcast,60,2012-10-20 04:08:00
12:17 AM,55.4,55.4,100,29.63,0.5,ENE,8.1,-,0.00,Fog,Fog,60,2012-10-20 04:17:00
12:28 AM,55.4,55.4,100,29.63,1.5,East,8.1,-,0.00,,Overcast,80,2012-10-20 04:28:00
12:32 AM,55.4,55.4,100,29.63,3.0,East,6.9,-,0.00,,Overcast,80,2012-10-20 04:32:00
12:53 AM,55.0,55.0,100,29.62,9.0,NE,6.9,-,0.00,,Overcast,50,2012-10-20 04:53:00
1:36 AM,55.4,53.6,94,29.62,10.0,ENE,3.5,-,0.05,Rain,Light Rain,70,2012-10-20 05:36:00
1:50 AM,55.4,55.4,100,29.61,10.0,ENE,5.8,-,0.05,Thunderstorm,Overcast,70,2012-10-20 05:50:00
1:53 AM,55.0,55.0,100,29.62,10.0,ENE,6.9,-,0.05,Thunderstorm,Overcast,70,2012-10-20 05:53:00
2:00 AM,55.4,55.4,100,29.60,10.0,NE,6.9,-,0.00,Rain-Thunderstorm,Light Rain,50,2012-10-20 06:00:00
2:21 AM,55.4,55.4,100,29.61,10.0,ENE,6.9,-,0.00,Rain,Light Rain,60,2012-10-20 06:21:00
2:28 AM,55.4,55.4,100,29.59,7.0,NE,10.4,-,0.01,Rain-Thunderstorm,Light Rain,40,2012-10-20 06:28:00
2:42 AM,55.4,55.4,100,29.63,1.8,ESE,8.1,-,0.18,Rain-Thunderstorm,Heavy Thunderstorms and Rain,110,2012-10-20 06:42:00
2:50 AM,55.4,55.4,100,29.62,2.5,Calm,Calm,-,0.20,Rain-Thunderstorm,Thunderstorms and Rain,0,2012-10-20 06:50:00
2:51 AM,55.4,55.4,100,29.62,3.0,East,3.5,-,0.20,Rain-Thunderstorm,Thunderstorms and Rain,100,2012-10-20 06:51:00
2:53 AM,55.0,55.0,100,29.62,4.0,East,4.6,-,0.20,Rain-Thunderstorm,Thunderstorms and Rain,90,2012-10-20 06:53:00
3:07 AM,55.4,53.6,94,29.61,10.0,ESE,4.6,-,0.00,,Overcast,110,2012-10-20 07:07:00
3:24 AM,55.4,53.6,94,29.60,10.0,ESE,3.5,-,0.00,,Overcast,110,2012-10-20 07:24:00
3:53 AM,55.0,54.0,96,29.60,10.0,East,4.6,-,0.00,,Overcast,80,2012-10-20 07:53:00
4:13 AM,53.6,53.6,100,29.60,10.0,East,4.6,-,N/A,,Mostly Cloudy,100,2012-10-20 08:13:00
4:28 AM,53.6,51.8,94,29.60,1.5,ENE,4.6,-,N/A,,Mostly Cloudy,70,2012-10-20 08:28:00
4:30 AM,53.6,53.6,100,29.60,0.8,East,3.5,-,N/A,,Mostly Cloudy,90,2012-10-20 08:30:00
4:53 AM,54.0,53.1,97,29.61,0.2,Calm,Calm,-,N/A,Fog,Fog,0,2012-10-20 08:53:00
5:53 AM,53.1,52.0,96,29.62,0.2,Calm,Calm,-,N/A,Fog,Fog,0,2012-10-20 09:53:00
5:59 AM,53.6,51.8,94,29.62,1.0,Calm,Calm,-,N/A,,Overcast,0,2012-10-20 09:59:00
6:04 AM,53.6,53.6,100,29.62,2.5,Calm,Calm,-,N/A,,Overcast,0,2012-10-20 10:04:00
6:11 AM,53.6,51.8,94,29.62,6.0,Calm,Calm,-,N/A,,Overcast,0,2012-10-20 10:11:00
6:53 AM,53.1,52.0,96,29.63,9.0,Calm,Calm,-,N/A,,Overcast,0,2012-10-20 10:53:00
7:44 AM,53.6,53.6,100,29.63,10.0,SSW,9.2,-,N/A,,Mostly Cloudy,210,2012-10-20 11:44:00
7:53 AM,55.0,53.1,93,29.64,10.0,SSW,6.9,-,N/A,,Mostly Cloudy,200,2012-10-20 11:53:00
8:12 AM,55.4,53.6,94,29.63,10.0,South,5.8,-,N/A,,Scattered Clouds,190,2012-10-20 12:12:00
8:36 AM,55.4,53.6,94,29.64,10.0,South,6.9,-,N/A,,Mostly Cloudy,190,2012-10-20 12:36:00
8:51 AM,55.4,53.6,94,29.64,10.0,South,5.8,-,N/A,,Scattered Clouds,190,2012-10-20 12:51:00
8:53 AM,55.0,54.0,96,29.65,10.0,South,6.9,-,N/A,,Scattered Clouds,190,2012-10-20 12:53:00
9:53 AM,57.9,55.0,90,29.64,10.0,SSW,10.4,-,N/A,,Partly Cloudy,210,2012-10-20 13:53:00
10:44 AM,60.8,53.6,77,29.64,10.0,WSW,13.8,20.7,N/A,,Mostly Cloudy,240,2012-10-20 14:44:00
10:53 AM,60.1,52.0,75,29.64,10.0,WSW,12.7,-,N/A,,Mostly Cloudy,240,2012-10-20 14:53:00
11:00 AM,60.8,51.8,72,29.64,10.0,SW,16.1,21.9,N/A,,Scattered Clouds,230,2012-10-20 15:00:00
11:53 AM,62.1,52.0,70,29.65,10.0,SW,10.4,-,N/A,,Mostly Cloudy,220,2012-10-20 15:53:00
12:07 PM,59.0,50.0,72,29.66,10.0,SW,15.0,-,N/A,,Mostly Cloudy,230,2012-10-20 16:07:00
12:19 PM,60.8,50.0,68,29.66,10.0,WSW,10.4,-,N/A,,Overcast,240,2012-10-20 16:19:00
12:53 PM,59.0,48.0,67,29.65,10.0,WSW,9.2,-,N/A,,Mostly Cloudy,240,2012-10-20 16:53:00
1:53 PM,59.0,46.4,63,29.63,10.0,West,12.7,-,N/A,,Overcast,260,2012-10-20 17:53:00
2:53 PM,59.0,46.4,63,29.64,10.0,WSW,6.9,19.6,N/A,,Overcast,240,2012-10-20 18:53:00
3:53 PM,57.9,45.0,62,29.65,10.0,WSW,12.7,19.6,N/A,,Overcast,240,2012-10-20 19:53:00
4:53 PM,57.0,43.0,59,29.65,10.0,WSW,11.5,20.7,N/A,,Scattered Clouds,240,2012-10-20 20:53:00
5:53 PM,54.0,41.0,62,29.67,10.0,SW,9.2,18.4,N/A,,Clear,230,2012-10-20 21:53:00
6:53 PM,48.9,41.0,74,29.68,10.0,SSW,4.6,-,N/A,,Clear,200,2012-10-20 22:53:00
7:53 PM,48.0,41.0,77,29.70,10.0,SSW,6.9,-,N/A,,Clear,210,2012-10-20 23:53:00
8:53 PM,46.9,41.0,80,29.71,10.0,SSW,6.9,-,N/A,,Mostly Cloudy,200,2012-10-21 00:53:00
9:53 PM,44.1,39.9,85,29.71,10.0,SSW,5.8,-,N/A,,Clear,200,2012-10-21 01:53:00
10:53 PM,46.0,43.0,89,29.70,10.0,SSW,4.6,-,N/A,,Mostly Cloudy,210,2012-10-21 02:53:00
11:53 PM,48.0,45.0,89,29.70,10.0,SW,8.1,-,N/A,,Overcast,220,2012-10-21 03:53:00